Regional Weather Roundup
Issued by NWS

Home | Current Version | Previous Version | Text Only | Print | Product List | Glossary On
Versions: 1 2 3 4 5 6 7 8 9 10 11 12 13 14 15 16 17 18 19 20 21 22 23 24 25 26 27 28 29 30 31 32 33 34 35 36 37 38 39 40 41 42 43 44 45 46 47 48 49 50
000
ASUS44 KFWD 301115
RWRTX
NORTH TEXAS HOURLY WEATHER ROUNDUP
NATIONAL WEATHER SERVICE FORT WORTH TX
600 AM CDT WED JUL 30 2014

NOTE: "FAIR" INDICATES FEW OR NO CLOUDS BELOW 12,000 FEET WITH NO
SIGNIFICANT WEATHER AND/OR OBSTRUCTIONS TO VISIBILITY.

TXZ118-119-301200-
DALLAS/FORT WORTH METROPLEX

CITY           SKY/WX    TMP DP  RH WIND       PRES   REMARKS
DFW AIRPORT    CLOUDY    77  66  68 SE8       30.03S
DALLAS LOVE    CLOUDY    77  66  68 SE10      30.04R
FTW MEACHAM    CLOUDY    76  66  71 SE9       30.03S
DAL-EXECUTIVE  CLOUDY    76  68  76 S6        30.04R
FTW-ALLIANCE   CLOUDY    73  65  75 CALM      30.03R
FTW-NAS-JRB    CLOUDY    79  65  62 SE7       30.07S
FTW-SPINKS     CLOUDY    74  67  78 SE5       30.05S
ARLINGTON      CLOUDY    76  67  73 SE8       30.03F
GRAND PRAIRIE  CLOUDY    77  66  68 SE6       30.05S
ADDISON        CLOUDY    79  64  61 SE7       30.05F
LANCASTER      CLOUDY    73  68  86 SE3       30.05S
$$

TXZ091>094-102>105-117-120-121-131>134-301200-
NORTH CENTRAL TEXAS

CITY           SKY/WX    TMP DP  RH WIND       PRES   REMARKS
SHRMAN/DENISON CLOUDY    75  65  71 CALM      30.08R
GAINESVILLE    LGT RAIN  70  65  82 N7        30.10R
BOWIE          HVY RAIN  69  66  90 NE3       30.08R
BRIDGEPORT     CLOUDY    71  67  89 SE7       30.06F
DECATUR        CLOUDY    71  65  80 S6        30.07S
DENTON         CLOUDY    72  68  87 CALM      30.05R
MCKINNEY       CLOUDY    76  66  71 SE8       30.04S
GREENVILLE     CLOUDY    75  63  64 SE9       30.06S
ROCKWALL       CLOUDY    75  66  73 SE7       30.04S
TERRELL        CLOUDY    77  68  73 SE6       30.06R
WAXAHACHIE     CLOUDY    73  67  79 SE5       30.06R
CLEBURNE       CLOUDY    73  70  88 SE7       30.06S
GRANBURY       CLOUDY    75  67  74 SE3       30.05R
$$

TXZ083>090-098>101-113>116-127>130-139>142-154-155-301200-
WESTERN NORTH TEXAS

CITY           SKY/WX    TMP DP  RH WIND       PRES   REMARKS
WICHITA FALLS  LGT RAIN  68  65  90 E13       30.03F FOG
WF-KICKAPOO    LGT RAIN  68  66  94 E9        30.05F
VERNON         CLOUDY    69  62  78 E6        30.06R
ABILENE        CLOUDY    76  68  76 S10       30.03R
ABILENE-DYESS  CLOUDY    75  68  79 SE9       30.01S
BRECKENRIDGE   CLOUDY    79  66  64 S13       30.01S
GRAHAM         CLOUDY    75  63  64 SE6       30.01S
MINERAL WELLS  CLOUDY    72  66  81 SE8       30.02S
STEPHENVILLE   CLOUDY    75  66  75 S5        30.07S
COMANCHE       CLOUDY    77  68  73 S10       30.05R
BROWNWOOD      CLOUDY    77  68  73 S7        30.04S
COLEMAN        CLOUDY    76  66  70 S8        30.05S
BRADY          CLEAR     73  63  68 SE6       30.06R
$$

TXZ143>147-156>162-174-175-301200-
CENTRAL TEXAS

CITY           SKY/WX    TMP DP  RH WIND       PRES   REMARKS
WACO           MOCLDY    76  71  85 SE7       30.03F
WACO-MCGREGOR  PTCLDY    73  68  83 S8        30.05S
HILLSBORO      CLOUDY    75  69  81 SE7       30.04S
CORSICANA      PTCLDY    75  70  84 SE7       30.06R
MEXIA          CLEAR     71  70  94 SE3       30.04S
HEARNE         CLEAR    N/A N/A N/A SE3       30.05R
CAMERON        CLEAR     74  71  91 CALM      30.05S
TEMPLE         PTCLDY    75  66  73 SE12      30.04F
KILLEEN        PTCLDY    73  70  88 SE9       30.04S
KILLEEN-SKYLRK PTCLDY    75  66  73 SE10      30.04S
FORT HOOD      PTCLDY    77  71  82 SE7       30.04S
GATESVILLE     MOCLDY    73  72  94 SE5       30.06S
HAMILTON       CLOUDY    75  71  87 S8        30.06S
LAMPASAS       MOCLDY    73  72  95 CALM      30.04F
$$

TXZ095>097-106>112-122>126-135>138-148>153-164>167-301200-
EAST TEXAS

CITY           SKY/WX    TMP DP  RH WIND       PRES   REMARKS
PARIS          CLOUDY    72  63  73 E7        30.07S
SULPHUR SPRNGS CLOUDY    75  65  71 S10       30.08R
CLARKSVILLE    CLOUDY    72  65  78 CALM      30.08R
MOUNT PLEASANT CLOUDY    71  66  83 SE3       30.09R
GILMER         MOCLDY    73  66  78 SE5       30.09S
MINEOLA        CLOUDY    73  66  78 SE3       30.07S
TYLER          MOCLDY    75  66  73 SE10      30.06R
LONGVIEW       MOCLDY    73  65  75 SE8       30.07R
MARSHALL       PTCLDY    73  68  83 CALM      30.10R
ATHENS         MOCLDY    72  66  83 S5        30.05R
JACKSONVILLE   PTCLDY    74  67  80 SE7       30.09R
HENDERSON      MOCLDY    72  65  80 SE3       30.08S
NACOGDOCHES    CLEAR     72  66  83 SE6       30.07S
LUFKIN         PTCLDY    74  69  85 SE5       30.06R
$$

SUPPLEMENTAL OBSERVATIONS (CENTRAL)

CITY           SKY/WX    TMP DP  RH WIND       PRES   REMARKS
LAKE TEXOMA      N/A     75  68  78 CALM        N/A
PALESTINE        N/A     72  68  88 E2          N/A
MCGREGOR         N/A     75  68  78 S10         N/A
TEMPLE           N/A     73  68  83 SE7         N/A
$$

SUPPLEMENTAL OBSERVATIONS (WEST)

CITY           SKY/WX    TMP DP  RH WIND       PRES   REMARKS
MILLERS CREEK    N/A    N/A N/A N/A E6          N/A
POSSUM KINGDOM   N/A     75  63  64 SE9         N/A
GRANBURY         N/A     75  66  73 SE7         N/A
HAMBY            N/A     75  68  78 S14         N/A
IVIE RESERVOIR   N/A     75  63  64 SE8         N/A
COLORADO BEND    N/A     73  64  73 SE3         N/A
$$

SUPPLEMENTAL OBSERVATIONS (EAST)

CITY           SKY/WX    TMP DP  RH WIND       PRES   REMARKS
TEXARKANA        N/A     66  63  88 CALM        N/A
LINDEN           N/A     70  64  83 CALM        N/A
CADDO LAKE       N/A     68  63  83 CALM        N/A
LUFKIN           N/A     73  72  94 MISG        N/A
N SABINE NF      N/A     70  66  88 MISG        N/A
$$

SUPPLEMENTAL OBSERVATIONS ARE A COLLECTION OF AUTOMATED INSTRUMENTS
THAT ARE MAINTAINED BY A VARIETY OF FEDERAL AND STATE AGENCIES.
CERTAIN ELEMENTS...SUCH AS HUMIDITY VALUES AND SUSTAINED WIND
SPEEDS...MAY BE APPROXIMATED.




USA.gov is the U.S. government's official web portal to all federal, state and local government web resources and services.